map of NCU home
Great Circle Mapper logo
NCU - Airport
Location
City:  Nukus, Uzbekistan
Near (Alt.):Nukys
ICAO / IATA:UTNN / NCU

Details
Type:Airport (Aerodrome, Airfield)
Use:Public/Civil, Military
Latitude:4229'18"N (42.488411)
Longitude:5937'24"E (59.623256)
Datum:WGS 1984
Elevation:246 ft (75 m)
Variation:6.49E (WMM2015 magnetic declination)
0.06 annual change
Runways:2
Longest:9175 × 160 ft (2797 × 49 m), paved

Time
Time Zone:UTC+5
Local Time:

Weather
METAR:UTNN 010030Z 27003KT CAVOK 03/M08 Q1015 R33/CLRD60 NOSIG
TAF:UTNN 312250Z 0100/0124 VRB04KT 9999 SCT040 BKN100
TEMPO 0100/0104 SHSNRA BKN020CB BKN100
TEMPO 0104/0114 09014G24KT

Related Locations
Nearby:
Farthest:IPC: 11210 mi / 18040 km
Easter Island (Isla de Pascua, Rapa Nui) [Mataveri Intl], VS, CL

Find:

   beyond  
but within

Other Information
Maps:
NOTAMs:
Links:
Sources:

  
flag of Uzbekistan   

Sectional Chart

Flight Planning
at skyvector.com

Satellite Image

Google Maps Satellite View

 

Copyright © 2004-2015 Karl L. Swartz. All rights reserved.
The Great Circle Mapper name and logo are trademarks of the Great Circle Mapper.
All other trademarks mentioned herein belong to their respective owners.
Please see credits for attibutions and further copyright information.

  Follow gcmap on Facebook Follow gcmap on Twitter Follow gcmap on Google+

hCard Microformat

Geo Microformat